星链-34128 (STARLINK-34128)

导读

STARLINK-34128是美国于2025年5月10日发射的星链系列卫星,隶属于SpaceX公司的星链互联网星座项目。该项目旨在构建全球卫星互联网系统,为全球偏远及网络不发达地区提供高速互联网接入服务。作为星座组网的一员,此卫星进一步扩充了星链网络覆盖能力,推动全球互联基础设施建设。

基本信息
目录编号:
63892
目录名称:
STARLINK-34128
国际标识:
2025-095C
轨道中心:
EARTH
卫星名称:
星链-34128
卫星全名:
星链-34128 (STARLINK-34128)
卫星状态:
已陨落 最后检测时间 2026-03-01
发射日期:
2025-05-10 UTC
国别 :
美国 (US)
星等 :
--
轨道信息
数据来源 国际轨道数据
星历时间: 2026-03-01T04:00:53+0800
轨道信息已过期105天
半长轴: 6593.203km
偏心率: 0.0005978
轨道倾角: 42.992°
近地点辐角 293.642°
升交点赤经 220.031°
平近点角 66.384°
近地点: 211.124km
远地点: 219.008km
周期: 88.798分钟
每日圈数: 16.216537
详细信息
固有亮度:
5
最大亮度:
2.5
卫星平台:
Starlink V1.0
覆盖范围:
全球
运营商:
太空探索技术公司
运营商所在国:
美国
制造商(研发单位):
太空探索技术公司
制造商所在国:
美国
使用方式:
暂无
卫星简介
Starlink 计划是 SpaceX 推出的全球卫星互联网项目,通过发射低轨道卫星,为全球尤其是偏远地区提供高速、低延迟的互联网服务。自 2019 年起,Starlink 已部署数千颗卫星,旨在缩小全球数字鸿沟,推动互联网普及。该项目还为军事、航空等行业提供通信支持,带来广泛经济效益。